STARLINK-35290, 65846

Orbit data source: Space-Track

STARLINK-35290, 65846 is a payload satellite owned by SpaceX/Seattle (US) in LEO that was launched on Mon, 29 Sep 2025 UTC via an FALCON 9 launch vehicle from the Air Force Western Test Range (AFWTR). Payload-class satellites include a variety of spacecraft equipped with specific instruments for various scientific and technological missions. These include communications satellites like Starlink; space stations such as the ISS; scientific satellites like the Hubble; Earth observation satellites from companies like Planet Labs, Umbra, and HawkEye 360; GPS; miniature CubeSats for education and research; and military/defense satellites.

Loading next visibility...
Identifier
65846, 2025-221Z
Orbit
LEO
Country
Flag of USUS
Related business
Manufacturer
SpaceX/Seattle
Mission
Operational Commercial Communications
Bus & Motor
STARLINK V2MO, Unknown motor
Mass
575 kg wet, ~530 kg dry
Launch date (UTC)
2025-09-29 (2 months ago)
Launch vehicle
FALCON 9
Launch site
Air Force Western Test Range (AFWTR)
Object type
Payload
Rocket body
Debris
Shape & HBR
Box + 2 Pan, 17.7 m
Radar Cross Section
36.964 m²

Expand to show TLE details & history
Last TLE update: 17 hours ago

TLE from 17 hours ago
0 STARLINK-35290
1 65846U 25221Z   25340.47651739  .00030065  00000-0  10226-2 0  9994
2 65846  53.1584 161.1890 0001471  93.2435 266.8734 15.30217269 10465
Epoch: 2025-12-06T11:26Z
TLE epoch observation values (Epoch: 2025-12-06T11:26:11.102Z)
Latitude
-0.00003°
Longitude
-85.86098°
Altitude
476.118 km
Speed
7.629 km/s
True Right ascension
10h 44m 45s
True Declination
0° 00' 00"
Sunlit
Object was in daylight at epoch
Visualization orbit readout
Latitude
Unknown
Longitude
Unknown
Altitude
Unknown
Speed
Unknown
Apparent Right ascension
Unknown
Apparent Declination
Unknown
Sunlit
N/A
Visualization observer readout
Local Sidereal Time
02:18:02
Azimuth
Unknown
Elevation
Unknown
Doppler factor
Unknown
Orbital elements
Apogee altitude
476.428 km
Perigee altitude
474.412 km
Semi-major axis
6,853.557 km
Eccentricity
0.00015
Inclination
53.1584°
RAAN
161.189°
Arg. of periapsis
93.2435°
True anomaly
266.85657°
Mean anomaly
266.8734°
Eccentric anomaly
266.86498°
Mean motion
3.82533 °/min
Orbital period
94.11 mins
BSTAR
0.0010226
Loading maneuver chart data...
Computing Atmospheric mass density...
Loading historical data...
Loading historical data...
Loading historical data...
Loading historical data...
Loading historical data...
Loading historical data...
Loading historical data...

Documentation

Showing up to 5 results
|